GW4236 Weather Reports


Display with metric or nautical units.
time (UTC)temp
F
wind
direction
speed
MPH
gust
MPH
rain 1hr
in
rain 24hr
in
rain mn
in
humidity
%
barometer
mb
20260505211253 87 192 4.0 6.0 0.00 0.00 0.00 66 1005.8
20260505210749 87 173 3.0 9.0 0.00 0.00 0.00 66 1005.9
20260505210246 87 156 4.0 9.0 0.00 0.00 0.00 65 1006.0
20260505205743 87 223 9.0 13.0 0.00 0.00 0.00 65 1006.1
20260505205242 88 180 3.0 7.0 0.00 0.00 0.00 64 1005.9
20260505204738 87 169 5.0 9.0 0.00 0.00 0.00 64 1006.2
20260505204236 88 210 4.0 10.0 0.00 0.00 0.00 64 1006.2
20260505203733 88 221 6.0 9.0 0.00 0.00 0.00 63 1006.2
20260505203230 87 350 9.0 13.0 0.00 0.00 0.00 64 1006.3
20260505202725 87 222 2.0 7.0 0.00 0.00 0.00 66 1006.3
20260505202221 88 193 7.0 10.0 0.00 0.00 0.00 65 1006.4
20260505201718 88 291 4.0 8.0 0.00 0.00 0.00 64 1006.4
20260505201216 87 197 6.0 10.0 0.00 0.00 0.00 64 1006.3
20260505200714 87 161 4.0 14.0 0.00 0.00 0.00 64 1006.3
20260505200210 87 201 3.0 7.0 0.00 0.00 0.00 65 1006.4
20260505195706 87 198 4.0 14.0 0.00 0.00 0.00 65 1006.3
20260505195204 87 165 8.0 9.0 0.00 0.00 0.00 64 1006.5
20260505194701 86 158 4.0 10.0 0.00 0.00 0.00 65 1006.6
20260505194157 86 210 6.0 13.0 0.00 0.00 0.00 65 1006.4
20260505193654 87 152 6.0 9.0 0.00 0.00 0.00 64 1006.3
20260505193151 85 209 8.0 14.0 0.00 0.00 0.00 65 1006.4
20260505192650 85 205 5.0 17.0 0.00 0.00 0.00 66 1006.5
20260505192147 85 24 6.0 11.0 0.00 0.00 0.00 66 1006.8
20260505191645 85 171 7.0 14.0 0.00 0.00 0.00 66 1006.5
20260505191143 85 182 6.0 16.0 0.00 0.00 0.00 66 1006.8
20260505190639 84 229 9.0 15.0 0.00 0.00 0.00 68 1006.8
20260505190138 84 191 7.0 13.0 0.00 0.00 0.00 67 1006.9
20260505185635 84 198 8.0 11.0 0.00 0.00 0.00 68 1006.9
20260505185131 83 165 5.0 10.0 0.00 0.00 0.00 68 1006.9
20260505184628 83 154 3.0 13.0 0.00 0.00 0.00 69 1006.9
20260505184125 83 220 9.0 15.0 0.00 0.00 0.00 68 1007.1
20260505183622 84 307 3.0 8.0 0.00 0.00 0.00 68 1007.0
20260505183119 83 205 7.0 10.0 0.00 0.00 0.00 69 1007.0
20260505182615 83 330 8.0 13.0 0.00 0.00 0.00 68 1007.0
20260505182112 83 250 6.0 10.0 0.00 0.00 0.00 69 1007.1
20260505181609 82 169 9.0 14.0 0.00 0.00 0.00 70 1006.9
20260505181106 82 206 4.0 10.0 0.00 0.00 0.00 70 1007.2
20260505180602 82 213 5.0 15.0 0.00 0.00 0.00 69 1007.1
20260505180100 82 198 7.0 13.0 0.00 0.00 0.00 70 1007.2
20260505175555 82 205 4.0 10.0 0.00 0.00 0.00 71 1007.1
20260505175052 82 205 5.0 15.0 0.00 0.00 0.00 71 1007.0
20260505174549 81 190 8.0 10.0 0.00 0.00 0.00 71 1007.0
20260505174045 81 208 6.0 11.0 0.00 0.00 0.00 71 1007.2
20260505173542 82 223 6.0 9.0 0.00 0.00 0.00 70 1007.1
20260505173039 81 199 7.0 11.0 0.00 0.00 0.00 71 1007.2
20260505172537 82 217 4.0 11.0 0.00 0.00 0.00 71 1007.1
20260505172033 82 192 12.0 16.0 0.00 0.00 0.00 69 1007.2
20260505171528 81 215 5.0 15.0 0.00 0.00 0.00 71 1007.4
20260505171025 81 104 3.0 10.0 0.00 0.00 0.00 70 1007.1
20260505170522 81 231 10.0 15.0 0.00 0.00 0.00 71 1007.1
20260505170018 82 211 12.0 16.0 0.00 0.00 0.00 70 1007.3
20260505165514 81 266 4.0 13.0 0.00 0.00 0.00 71 1007.2
20260505165009 80 180 5.0 18.0 0.00 0.00 0.00 71 1006.8
20260505164506 80 178 5.0 13.0 0.00 0.00 0.00 73 1007.0
20260505164004 79 190 8.0 13.0 0.00 0.00 0.00 72 1007.2
20260505163502 79 230 9.0 14.0 0.00 0.00 0.00 74 1007.1
20260505163002 80 199 8.0 14.0 0.00 0.00 0.00 72 1006.9
20260505162456 79 234 5.0 13.0 0.00 0.00 0.00 73 1007.1
20260505161953 79 196 6.0 15.0 0.00 0.00 0.00 74 1007.1
20260505161450 78 157 8.0 18.0 0.00 0.00 0.00 75 1007.3
20260505160947 79 315 8.0 16.0 0.00 0.00 0.00 74 1007.1
20260505160446 79 266 7.0 11.0 0.00 0.00 0.00 74 1007.0
20260505152922 76 211 10.0 15.0 0.00 0.00 0.00 78 1007.3
20260505152419 77 231 9.0 15.0 0.00 0.00 0.00 78 1007.1
20260505151913 76 148 9.0 16.0 0.00 0.00 0.00 78 1007.1
20260505151410 76 201 3.0 15.0 0.00 0.00 0.00 80 1007.1
20260505150907 75 223 6.0 13.0 0.00 0.00 0.00 80 1007.3
20260505150404 75 214 8.0 14.0 0.00 0.00 0.00 81 1007.4
20260505140334 73 146 2.0 7.0 0.00 0.00 0.00 84 1007.4
20260505130257 72 200 4.0 10.0 0.00 0.00 0.00 86 1006.8
20260505124748 71 198 1.0 7.0 0.00 0.00 0.00 87 1006.7
20260505124245 71 141 4.0 7.0 0.00 0.00 0.00 87 1006.6
20260505123740 71 213 4.0 9.0 0.00 0.00 0.00 87 1006.4
20260505123237 71 143 4.0 8.0 0.00 0.00 0.00 87 1006.2
20260505122734 71 233 4.0 8.0 0.00 0.00 0.00 87 1006.2
20260505122231 71 299 6.0 8.0 0.00 0.00 0.00 87 1006.3
20260505121727 71 121 4.0 8.0 0.00 0.00 0.00 87 1006.5
20260505121224 71 174 3.0 10.0 0.00 0.00 0.00 87 1006.4
20260505120721 71 222 6.0 14.0 0.00 0.00 0.00 87 1006.3
20260505120217 71 194 3.0 8.0 0.00 0.00 0.00 87 1006.2
20260505115715 71 246 4.0 8.0 0.00 0.00 0.00 87 1006.1
20260505115213 71 216 3.0 8.0 0.00 0.00 0.00 87 1006.3
20260505114710 71 217 4.0 8.0 0.00 0.00 0.00 87 1006.5
20260505114206 71 229 5.0 11.0 0.00 0.00 0.00 87 1006.4
20260505113703 71 205 2.0 8.0 0.00 0.00 0.00 87 1006.2
20260505113159 71 221 3.0 11.0 0.00 0.00 0.00 87 1006.3
20260505112656 71 212 2.0 8.0 0.00 0.00 0.00 87 1006.1
20260505112154 71 219 6.0 8.0 0.00 0.00 0.00 87 1006.3
20260505111653 71 207 5.0 8.0 0.00 0.00 0.00 87 1006.4
20260505111149 71 221 4.0 13.0 0.00 0.00 0.00 87 1006.1
20260505110645 71 205 6.0 14.0 0.00 0.00 0.00 87 1005.9
20260505110143 71 194 3.0 8.0 0.00 0.00 0.00 87 1005.8
20260505102119 71 309 4.0 7.0 0.00 0.00 0.00 86 1006.1
20260505101617 71 121 6.0 10.0 0.00 0.00 0.00 86 1006.2
20260505101113 71 178 5.0 10.0 0.00 0.00 0.00 86 1006.3
20260505100609 71 186 5.0 11.0 0.00 0.00 0.00 85 1006.4
20260505100107 71 126 4.0 8.0 0.00 0.00 0.00 85 1006.4
20260505095603 71 188 4.0 11.0 0.00 0.00 0.00 85 1006.5
20260505095059 71 125 7.0 11.0 0.00 0.00 0.00 85 1006.6
20260505094556 71 93 3.0 11.0 0.00 0.00 0.00 85 1006.6
20260505094052 71 236 7.0 14.0 0.00 0.00 0.00 85 1006.6
20260505093548 71 220 9.0 16.0 0.00 0.00 0.00 85 1006.6
20260505093046 71 290 5.0 10.0 0.00 0.00 0.00 86 1006.5
20260505092543 71 216 6.0 11.0 0.00 0.00 0.00 86 1006.7
20260505092042 71 190 7.0 13.0 0.00 0.00 0.00 86 1006.5
20260505091538 71 285 5.0 14.0 0.00 0.00 0.00 86 1006.6
20260505091037 71 228 5.0 14.0 0.00 0.00 0.00 85 1006.5
20260505090534 71 132 5.0 11.0 0.00 0.00 0.00 86 1006.5
20260505090032 71 215 4.0 8.0 0.00 0.00 0.00 86 1006.5
20260505085529 71 162 8.0 15.0 0.00 0.00 0.00 86 1006.4
20260505085027 71 216 5.0 11.0 0.00 0.00 0.00 86 1006.5
20260505084525 71 227 8.0 10.0 0.00 0.00 0.00 86 1006.6
20260505084023 71 196 8.0 14.0 0.00 0.00 0.00 86 1006.5
20260505083520 71 155 7.0 10.0 0.00 0.00 0.00 86 1006.6
20260505083017 71 167 5.0 13.0 0.00 0.00 0.00 86 1006.7
20260505082512 71 223 5.0 8.0 0.00 0.00 0.00 86 1006.7
20260505082009 71 105 3.0 8.0 0.00 0.00 0.00 86 1006.5
20260505081506 71 200 7.0 13.0 0.00 0.00 0.00 86 1006.6
20260505081002 71 243 4.0 13.0 0.00 0.00 0.00 86 1006.5
20260505080459 71 142 5.0 11.0 0.00 0.00 0.00 85 1006.8
20260505075954 71 235 5.0 9.0 0.00 0.00 0.00 85 1006.7
20260505075451 71 213 5.0 10.0 0.00 0.00 0.00 85 1006.9
20260505074949 71 185 5.0 11.0 0.00 0.00 0.00 85 1006.8
20260505074446 71 151 5.0 13.0 0.00 0.00 0.00 85 1007.0
20260505073943 71 169 6.0 8.0 0.00 0.00 0.00 86 1007.1
20260505073441 71 206 4.0 11.0 0.00 0.00 0.00 86 1007.1
20260505072938 71 221 5.0 11.0 0.00 0.00 0.00 85 1006.9
20260505072434 71 193 3.0 11.0 0.00 0.00 0.00 85 1007.1
20260505071931 71 182 3.0 10.0 0.00 0.00 0.00 85 1007.2
20260505071426 71 196 3.0 8.0 0.00 0.00 0.00 85 1007.4
20260505070924 71 239 4.0 8.0 0.00 0.00 0.00 85 1007.3
20260505070420 71 225 5.0 10.0 0.00 0.00 0.00 85 1007.5
20260505065916 71 212 3.0 7.0 0.00 0.00 0.00 85 1007.5
20260505065413 71 183 2.0 10.0 0.00 0.00 0.00 85 1007.7
20260505064910 71 210 5.0 8.0 0.00 0.00 0.00 85 1007.7
20260505064407 71 227 2.0 7.0 0.00 0.00 0.00 84 1007.8
20260505063905 71 203 2.0 8.0 0.00 0.00 0.00 84 1007.9
20260505063401 71 158 5.0 10.0 0.00 0.00 0.00 84 1007.6
20260505062858 71 132 4.0 9.0 0.00 0.00 0.00 84 1007.9
20260505062355 71 189 2.0 10.0 0.00 0.00 0.00 83 1008.0
20260505061852 71 180 2.0 7.0 0.00 0.00 0.00 83 1008.0
20260505061350 71 157 4.0 7.0 0.00 0.00 0.00 83 1008.0
20260505060848 71 198 3.0 10.0 0.00 0.00 0.00 83 1008.1
20260505060344 71 198 3.0 8.0 0.00 0.00 0.00 82 1008.0
20260505055840 71 186 2.0 4.0 0.00 0.00 0.00 82 1008.0
20260505055336 72 208 4.0 9.0 0.00 0.00 0.00 82 1008.0
20260505054833 71 293 3.0 6.0 0.00 0.00 0.00 82 1008.0
20260505054331 72 215 5.0 8.0 0.00 0.00 0.00 81 1008.1
20260505053829 72 215 4.0 10.0 0.00 0.00 0.00 81 1008.1
20260505053326 72 202 2.0 9.0 0.00 0.00 0.00 81 1008.5
20260505052822 72 189 4.0 8.0 0.00 0.00 0.00 80 1008.4
20260505052319 72 206 4.0 6.0 0.00 0.00 0.00 80 1008.3
20260505051817 72 168 4.0 9.0 0.00 0.00 0.00 80 1008.3
20260505051314 72 5 3.0 7.0 0.00 0.00 0.00 79 1008.2
20260505050812 72 205 4.0 8.0 0.00 0.00 0.00 79 1008.1
20260505050310 72 200 3.0 7.0 0.00 0.00 0.00 79 1008.3
20260505041740 73 255 8.0 11.0 0.00 0.00 0.00 76 1008.3
20260505041237 73 203 6.0 8.0 0.00 0.00 0.00 75 1008.4
20260505040734 73 229 6.0 8.0 0.00 0.00 0.00 75 1008.4
20260505040232 73 213 4.0 6.0 0.00 0.00 0.00 75 1008.2
20260505035729 73 202 4.0 8.0 0.00 0.00 0.00 75 1008.4
20260505035225 73 167 3.0 7.0 0.00 0.00 0.00 75 1008.2
20260505034722 73 226 7.0 9.0 0.00 0.00 0.00 75 1008.1
20260505034219 73 156 4.0 13.0 0.00 0.00 0.00 75 1008.1
20260505033715 73 197 3.0 8.0 0.00 0.00 0.00 74 1008.3
20260505033213 73 203 3.0 6.0 0.00 0.00 0.00 74 1008.5
20260505032710 73 211 4.0 7.0 0.00 0.00 0.00 74 1008.4
20260505032206 73 164 2.0 11.0 0.00 0.00 0.00 74 1008.4
20260505031704 73 212 3.0 8.0 0.00 0.00 0.00 74 1008.5
20260505031200 73 208 4.0 6.0 0.00 0.00 0.00 74 1008.3
20260505030657 74 196 2.0 4.0 0.00 0.00 0.00 73 1008.5
20260505030152 74 230 2.0 10.0 0.00 0.00 0.00 73 1008.4
20260505025649 74 197 4.0 7.0 0.00 0.00 0.00 73 1008.4
20260505025147 74 194 3.0 7.0 0.00 0.00 0.00 73 1008.3
20260505024644 74 200 3.0 8.0 0.00 0.00 0.00 73 1008.2
20260505024141 74 193 4.0 6.0 0.00 0.00 0.00 73 1008.2
20260505023639 74 159 2.0 7.0 0.00 0.00 0.00 73 1007.9
20260505023136 74 196 4.0 4.0 0.00 0.00 0.00 73 1008.1
20260505022634 74 199 4.0 8.0 0.00 0.00 0.00 73 1008.1
20260505022130 74 198 4.0 6.0 0.00 0.00 0.00 72 1008.4
20260505021627 74 181 2.0 6.0 0.00 0.00 0.00 72 1008.2
20260505021124 74 169 2.0 7.0 0.00 0.00 0.00 72 1008.1
20260505020619 74 230 2.0 8.0 0.00 0.00 0.00 72 1008.0
20260505020116 74 186 3.0 7.0 0.00 0.00 0.00 72 1008.2
20260505015613 74 181 4.0 6.0 0.00 0.00 0.00 72 1008.0
20260505015110 74 214 1.0 6.0 0.00 0.00 0.00 71 1008.3
20260505014606 75 189 5.0 10.0 0.00 0.00 0.00 71 1008.0
20260505014103 75 202 4.0 7.0 0.00 0.00 0.00 70 1008.0
20260505013601 75 215 2.0 8.0 0.00 0.00 0.00 70 1008.1
20260505013058 75 189 3.0 8.0 0.00 0.00 0.00 69 1008.1
20260505012556 75 216 4.0 7.0 0.00 0.00 0.00 68 1008.0
20260505012053 75 202 2.0 4.0 0.00 0.00 0.00 68 1008.2
20260505011548 76 176 2.0 4.0 0.00 0.00 0.00 68 1008.2
20260505011046 76 182 1.0 6.0 0.00 0.00 0.00 68 1008.0
20260505010541 76 180 2.0 6.0 0.00 0.00 0.00 67 1008.0
20260505010038 76 166 4.0 7.0 0.00 0.00 0.00 67 1008.1
20260505005534 77 189 6.0 9.0 0.00 0.00 0.00 66 1008.0
20260505005032 77 224 5.0 10.0 0.00 0.00 0.00 66 1008.1
20260505004529 77 328 4.0 9.0 0.00 0.00 0.00 65 1008.1
20260505004025 77 180 2.0 9.0 0.00 0.00 0.00 64 1007.9
20260505003522 78 144 3.0 8.0 0.00 0.00 0.00 64 1008.0
20260505003020 78 128 4.0 9.0 0.00 0.00 0.00 63 1008.2
20260505002515 78 200 5.0 13.0 0.00 0.00 0.00 62 1008.0
20260505002014 79 204 4.0 8.0 0.00 0.00 0.00 62 1008.4
20260505001511 79 182 5.0 13.0 0.00 0.00 0.00 62 1008.3
20260505001008 78 214 4.0 14.0 0.00 0.00 0.00 62 1008.3
20260505000505 79 174 3.0 9.0 0.00 0.00 0.00 62 1008.3
20260505000003 79 154 4.0 10.0 0.00 0.00 0.00 62 1008.4
20260504235459 79 160 4.0 19.0 0.00 0.00 0.00 61 1008.3
20260504234956 79 196 4.0 11.0 0.00 0.00 0.00 61 1008.6
20260504234453 79 290 4.0 10.0 0.00 0.00 0.00 61 1008.4
20260504233949 79 156 4.0 10.0 0.00 0.00 0.00 61 1008.7
20260504233445 80 265 4.0 13.0 0.00 0.00 0.00 61 1008.4
20260504232942 80 203 4.0 9.0 0.00 0.00 0.00 60 1008.3
20260504232439 80 74 5.0 8.0 0.00 0.00 0.00 60 1008.4
20260504231937 80 220 3.0 11.0 0.00 0.00 0.00 60 1008.5
20260504231433 81 33 8.0 13.0 0.00 0.00 0.00 58 1008.5
20260504230929 81 182 3.0 13.0 0.00 0.00 0.00 59 1008.6
20260504230426 81 265 6.0 10.0 0.00 0.00 0.00 58 1008.9
20260504225925 81 157 2.0 7.0 0.00 0.00 0.00 58 1008.9
20260504225422 81 201 5.0 11.0 0.00 0.00 0.00 58 1008.9
20260504224919 81 218 7.0 13.0 0.00 0.00 0.00 57 1008.8
20260504224415 82 234 3.0 6.0 0.00 0.00 0.00 56 1008.6
20260504223913 82 70 8.0 10.0 0.00 0.00 0.00 55 1008.8
20260504223408 82 147 9.0 11.0 0.00 0.00 0.00 56 1008.9
20260504222904 82 296 4.0 10.0 0.00 0.00 0.00 56 1009.1
20260504222401 82 226 4.0 10.0 0.00 0.00 0.00 57 1008.9
20260504221900 82 201 9.0 13.0 0.00 0.00 0.00 56 1009.0
20260504221356 82 168 6.0 14.0 0.00 0.00 0.00 56 1009.1
20260504220854 82 89 5.0 10.0 0.00 0.00 0.00 56 1009.2
20260504220350 83 232 11.0 15.0 0.00 0.00 0.00 54 1009.0
20260504215847 81 168 7.0 13.0 0.00 0.00 0.00 56 1009.1
20260504215343 82 158 9.0 11.0 0.00 0.00 0.00 55 1009.0
20260504214840 82 278 7.0 11.0 0.00 0.00 0.00 55 1009.4
20260504214337 82 214 5.0 9.0 0.00 0.00 0.00 55 1009.6
20260504213833 84 234 5.0 11.0 0.00 0.00 0.00 54 1009.6
20260504213329 83 232 7.0 10.0 0.00 0.00 0.00 54 1009.7
20260504212827 83 209 9.0 11.0 0.00 0.00 0.00 53 1009.5
20260504212323 83 232 5.0 11.0 0.00 0.00 0.00 53 1009.7
20260504211821 82 170 5.0 10.0 0.00 0.00 0.00 53 1009.7